Weather in Pyyeldino

Russia / Komi Republic     60°58′02″N   50°14′41″E
temp.,
°C
wind,
m/s
gust,
m/s
humid.,
%
clouds,
%
prec.,
mm/h
press.,
hPa
HPBL,
m
18 may, tue
tue1800:00+10nnw25961 0.0 1019129
03:00+9n119771 0.0 102125
06:00+13ne2480100 0.0 1021379
09:00+17ne235713 0.0 10221029
12:00+21e234477 0.0 10211367
15:00+22ese233816 0.0 10211490
18:00+21ese23487 0.0 1021107
21:00+15se2369100 0.0 102153
19 may, wed
wed1900:00+13sse277990 0.0 1021132
03:00+12sse2784100 0.0 1022143
06:00+16s386939 0.0 1022286
09:00+21s354930 0.0 1021970
12:00+24s45365 0.0 10201506
15:00+25ssw45335 0.0 10191670
18:00+23s25435 0.0 1019271
21:00+16s256653 0.0 101992
20 may, thu
thu2000:00+14s2772100 0.0 1019122
03:00+13s2477100 0.0 101973
06:00+17s2565100 0.0 1020208
09:00+23s344373 0.0 1019937
12:00+26s45301 0.0 10171782
15:00+27s34295 0.0 10161919
18:00+25s26395 0.0 1015268
21:00+17sse27600 0.0 1015108
21 may, fri
fri2100:00+15sse24690 0.0 101559
03:00+14sse27770 0.0 1014133
06:00+18sse37600 0.0 1014320
09:00+23s59363 0.0 10131938
12:00+25sse610295 0.0 10112799
15:00+22sse51140100 0.0 10091423
18:00+18s5127399 0.6 10091209
21:00+15ssw398329 0.6 1009500
22 may, sat
sat2200:00+13s3997100 0.8 1009382
03:00+13ssw389567 1.6 1010463
06:00+14wsw488755 0.3 1012691
09:00+16w4655100 0.3 10141245
12:00+19wsw5735100 0.0 10142021
15:00+20wsw5835100 0.0 10152388
18:00+17sw484755 0.0 10151087
21:00+14sw4126538 0.0 1016465